Regional Weather Roundup
Issued by NWS

Home | Current Version | Previous Version | Graphics & Text | Print | Product List | Glossary Off
Versions: 1 2 3 4 5 6 7 8 9 10 11 12 13 14 15 16 17 18 19 20 21 22 23 24 25 26 27 28 29 30 31 32 33 34 35 36 37 38 39 40 41 42 43 44 45 46 47 48 49 50

000
ASUS43 KMPX 241801
RWRMN
WEATHER ROUNDUP FOR MINNESOTA
NATIONAL WEATHER SERVICE TWIN CITIES/CHANHASSEN MN
100 PM CDT SAT SEP 24 2016


NOTE: "FAIR" INDICATES FEW OR NO CLOUDS BELOW 12,000 FEET WITH NO
SIGNIFICANT WEATHER AND/OR OBSTRUCTIONS TO VISIBILITY. N/A MEANS
CURRENT SKY AND/OR WEATHER CONDITIONS ARE NOT AVAILABLE.

MNZ060>063-068>070-241900-
   Twin Cities Metro

CITY           SKY/WX    TMP DP  RH WIND       PRES   REMARKS
TWIN CITIES    CLOUDY    68  63  84 SE13      30.07F
6HR MIN TEMP:  63; 6HR MAX TEMP:  68;

ST PAUL        CLOUDY    66  62  87 SE12      30.09S
CRYSTAL        CLOUDY    67  61  81 SE15G21   30.06F
BLAINE         CLOUDY    68  64  88 SE10      30.08S
LAKEVILLE      CLOUDY    68  64  88 SE13      30.07F
EDEN PRAIRIE   CLOUDY    70  64  81 SE17      30.04F
6HR MIN TEMP:  65; 6HR MAX TEMP:  70;

LAKEVILLE      CLOUDY    68  64  88 SE13      30.07F
SOUTH ST PAUL  CLOUDY    67  64  89 SE5       30.09R
LAKE ELMO      CLOUDY    66  63  88 SE15      30.10S
$$
MNZ001>005-007-008-013>017-022>024-027-028-241900-
   Northwest Minnesota

CITY           SKY/WX    TMP DP  RH WIND       PRES   REMARKS
BEMIDJI        CLOUDY    64  61  88 SE14G20   30.00F
HALLOCK        PTSUNNY   72  66  83 SE14      29.86F
ROSEAU         CLOUDY    66  61  82 SE15      29.93F
WARROAD        CLOUDY    64  61  88 SE12      29.96F
THIEF RVR FALL CLOUDY    73  65  75 SE17      29.91F
CROOKSTON      PTSUNNY   75  66  73 S24       29.88F
FOSSTON        MOSUNNY   72  63  73 SE14      29.94S
DETROIT LAKES  CLOUDY    68  63  83 SE17G24   29.95F
MOORHEAD       MOSUNNY   77  64  65 SE25G31   29.87F
PARK RAPIDS    CLOUDY    65  61  87 SE16      30.00F
MAHNOMEN       FAIR      71  63  75 SE17G29   29.92F
$$
MNZ006-009>011-018-025>026-241900-
   North Central Minnesota

CITY           SKY/WX    TMP DP  RH WIND       PRES   REMARKS
BAUDETTE       CLOUDY    63  60  90 SE12      30.00F
FLAG ISLAND    CLOUDY    59  57  94 SE7       29.98S
INTL FALLS     CLOUDY    64  57  78 S7        30.06S
6HR MIN TEMP:  54; 6HR MAX TEMP:  64;

WASKISH        CLOUDY    64  61  88 S9        30.01S
BIG FORK       CLOUDY    64  57  77 S9G16     30.06S
GRAND RAPIDS   CLOUDY    62  58  86 SE12G21   30.09F
ORR            CLOUDY    63  55  77 SE10G16   30.07S
COOK           CLOUDY    63  57  82 SE9G16    30.11S
WALKER         CLOUDY    62  59  91 SE9       30.03S
$$
MNZ012-019>021-037-241900-
   Northeast Minnesota

CITY           SKY/WX    TMP DP  RH WIND       PRES   REMARKS
DULUTH         FOG       58  58 100 E10       30.12F VSB 3/4
6HR MIN TEMP:  54; 6HR MAX TEMP:  58; 6HR PCP:  0.02;

ELY            CLOUDY    64  55  72 SE15      30.13S
HIBBING        CLOUDY    60  57  89 SE13      30.11S
EVELETH        CLOUDY    61  56  84 SE7G16    30.13S
DULUTH HARBOR  CLOUDY    61  57  88 NE12      30.13F
TWO HARBORS    CLOUDY    61  55  82 E9        30.14S FOG
SILVER BAY     CLOUDY    61  55  82 E9        30.15F
GRAND MARAIS     N/A     62  57  83 NE9       30.20F
G MARAIS ARPRT MOSUNNY   61  50  67 SE6G16    30.21F
$$
MNZ029>031-032-039>041-046>048-054>057-064-241900-
   West Central Minnesota

CITY           SKY/WX    TMP DP  RH WIND       PRES   REMARKS
FERGUS FALLS   SUNNY     73  64  73 SE20G25   29.93F
MORRIS         MOSUNNY   75  66  73 SE20G28   29.90F
ALEXANDRIA     CLOUDY    68  65  90 SE17      29.99F
ELBOW LAKE     FAIR      72  65  79 E17G29    29.93F
GLENWOOD       MOSUNNY   66  64  94 SE17G24   29.99S FOG
BENSON         MOSUNNY   75  64  69 SE13G22   29.93F
ORTONVILLE     PTSUNNY   79  66  65 SE18G24   29.88F
MADISON          N/A     81  68  65 SE14G26   29.89F
WILLMAR        FAIR      73  66  78 SE18G25   29.98F
$$
MNZ033>034-036-042>043-049>051-058-059-241900-
   Central Minnesota

CITY           SKY/WX    TMP DP  RH WIND       PRES   REMARKS
ST CLOUD       CLOUDY    64  64 100 SE14G23   30.04F
6HR MIN TEMP:  62; 6HR MAX TEMP:  64;

SAUK CENTRE    CLOUDY    65  64  96 SE14G22   30.00F FOG
PAYNESVILLE    CLOUDY    68  68 100 SE14      30.02S
AITKIN         CLOUDY    64  57  77 SE13      30.06F
PINE RIVER     CLOUDY    63  63 100 SE13G18   30.07F
BRAINERD       CLOUDY    63  60  90 SE10G17   30.05F
STAPLES        CLOUDY    61  61 100 SE12      30.02S FOG
LONG PRAIRIE   CLOUDY    63  63 100 E12G20    30.02F FOG
LITTLE FALLS   CLOUDY    63  61  94 SE13      30.05R FOG
LITCHFIELD     PTSUNNY   73  68  83 SE14      30.02F
BUFFALO        CLOUDY    66  62  85 E10G17    30.05F
MAPLE LAKE     CLOUDY    67  65  93 SE9       30.05F
HUTCHINSON     MOSUNNY   74  67  80 SE13G23   30.02F
$$
MNZ037-044-045-052-053-241900-
   East Central Minnesota

CITY           SKY/WX    TMP DP  RH WIND       PRES   REMARKS
PRINCETON      CLOUDY    66  63  88 E12       30.07F FOG
MORA           CLOUDY    63  59  88 S9        30.11R
CAMBRIDGE      CLOUDY    66  61  82 SE8       30.07S
MOOSE LAKE     CLOUDY    63  59  88 S5        30.08F
HINCKLEY       CLOUDY    64  61  88 E8        30.09F
CLOQUET        CLOUDY    59  55  88 E7        30.12S FOG
MCGREGOR       CLOUDY    63  59  88 SE10      30.09S
$$
MNZ071>073-080-081-089-090-097-098-241900-
   Southwest Minnesota

CITY           SKY/WX    TMP DP  RH WIND       PRES   REMARKS
MONTEVIDEO     MOSUNNY   79  66  65 S16G25    29.93F
GRANITE FALLS  PTSUNNY   80  67  65 E15G24    29.94F
CANBY          CLOUDY    79  68  68 SE17G26   29.90F
MARSHALL       MOSUNNY   80  68  66 S22G29    29.92F
REDWOOD FALLS  CLOUDY    79  66  64 SE16G25   29.95F
OLIVIA         MOSUNNY   73  64  73 SE15G21   29.96F
PIPESTONE      CLOUDY    79  66  65 S14G22    29.93R
WINDOM         SUNNY     81  66  61 SE18      29.97F
WORTHINGTON    PTSUNNY   81  68  64 SE15G28   29.95F
JACKSON        SUNNY     81  64  57 SE15G25   29.98F
TRACY          MOSUNNY   80  69  70 SE15G21   29.94F
$$
MNZ065>067-074>077-082>085-091>093-241900-
   South Central Minnesota

CITY           SKY/WX    TMP DP  RH WIND       PRES   REMARKS
MANKATO        SUNNY     75  66  73 SE20      30.01F
NEW ULM        SUNNY     75  66  73 SE13      29.99F
ST JAMES       SUNNY     77  66  69 SE17G23   29.99F
FAIRMONT       SUNNY     79  67  66 SE18G24   29.99F
GLENCOE        MOSUNNY   75  68  78 E14G22    30.01F
FARIBAULT      MOSUNNY   73  64  73 E12G20    30.06F
OWATONNA       SUNNY     73  63  68 SE15G22   30.06F
WASECA         SUNNY     72  63  73 SE14      30.06F
ALBERT LEA     PTSUNNY   72  66  83 SE16      30.06F
$$
MNZ078>079-086>088-094>096-241900-
   Southeast Minnesota

CITY           SKY/WX    TMP DP  RH WIND       PRES   REMARKS
ROCHESTER      CLOUDY    68  65  90 SE13      30.12F
6HR MIN TEMP:  62; 6HR MAX TEMP:  68;

RED WING       CLOUDY    66  63  88 SE14      30.10S
STANTON        CLOUDY    69  63  81 SE12G17   30.07F
DODGE CENTER   CLOUDY    70  64  83 SE16      30.10F
WINONA         CLOUDY    70  64  83 SE9       30.14F
AUSTIN         CLOUDY    70  64  83 SE12G18   30.09F
PRESTON        CLOUDY    65  62  89 SE10      30.14F FOG
$$
ABBREVIATIONS USED IN REMARKS
   TC - TEMPERATURES IN CELSIUS
  WCI - WIND CHILL INDEX
   HX - HEAT INDEX
  VSB - VISIBILITY
$$



USA.gov is the U.S. government's official web portal to all federal, state and local government web resources and services.